Precipitable_Water
1.32 1.52 1.60 1.64 1.67 1.69 1.70 1.72 1.73 1.76 1.75 1.73 1.63 1.57 1.59 1.56 1.52 1.50 1.48 1.46 1.40 1.39 1.40 1.36 1.34 1.35 1.31 1.29 1.31 1.34 1.37 1.38 1.41 1.45 1.47 1.46 1.46 1.49 1.48 1.50 1.51 1.65 1.71 1.60 1.59 1.61 1.62 1.73 1.72 1.74 1.70 1.62 1.62 1.64 1.68 1.68 1.69 1.73 1.71 1.66 1.72 1.71 1.66
1.24 1.31 1.53 1.64 1.67 1.74 1.87 1.86 1.85 1.79 1.79 1.76 1.70 1.66 1.65 1.64 1.60 1.56 1.59 1.54 1.49 1.42 1.42 1.38 1.35 1.35 1.32 1.32 1.31 1.31 1.32 1.34 1.39 1.44 1.45 1.45 1.46 1.49 1.52 1.51 1.50 1.50 1.65 1.68 1.66 1.66 1.64 1.61 1.66 1.65 1.66 1.60 1.56 1.62 1.65 1.67 1.67 1.71 1.73 1.65 1.63 1.66 1.62
1.42 1.44 1.57 1.66 1.67 1.73 1.79 1.88 1.84 1.78 1.80 1.74 1.74 1.73 1.68 1.70 1.69 1.65 1.70 1.69 1.60 1.54 1.48 1.40 1.37 1.34 1.37 1.37 1.32 1.30 1.32 1.30 1.33 1.37 1.36 1.38 1.38 1.41 1.48 1.52 1.50 1.52 1.54 1.69 1.71 1.67 1.66 1.60 1.57 1.60 1.59 1.57 1.55 1.55 1.62 1.63 1.65 1.66 1.73 1.70 1.62 1.66 1.58
1.47 1.50 1.59 1.66 1.69 1.77 1.82 1.83 1.84 1.81 1.80 1.82 1.79 1.75 1.73 1.72 1.73 1.79 1.78 1.74 1.66 1.62 1.49 1.48 1.40 1.36 1.37 1.36 1.33 1.33 1.30 1.30 1.29 1.33 1.34 1.37 1.40 1.38 1.40 1.44 1.44 1.50 1.52 1.53 1.64 1.68 1.69 1.65 1.58 1.56 1.54 1.55 1.56 1.58 1.55 1.59 1.64 1.62 1.66 1.69 1.61 1.69 1.62
1.46 1.48 1.55 1.57 1.64 1.67 1.71 1.81 1.78 1.79 1.85 1.85 1.86 1.81 1.81 1.82 1.84 1.78 1.81 1.73 1.71 1.60 1.56 1.52 1.49 1.40 1.41 1.39 1.35 1.35 1.34 1.30 1.27 1.29 1.34 1.36 1.42 1.41 1.35 1.34 1.38 1.36 1.43 1.50 1.55 1.55 1.62 1.60 1.61 1.55 1.50 1.48 1.50 1.56 1.56 1.55 1.60 1.60 1.60 1.64 1.62 1.66 1.63
1.28 1.36 1.41 1.51 1.56 1.62 1.73 1.76 1.73 1.76 1.97 1.98 1.92 1.87 1.82 1.87 1.87 1.82 1.82 1.73 1.62 1.62 1.62 1.60 1.52 1.44 1.35 1.36 1.35 1.34 1.38 1.38 1.32 1.27 1.31 1.36 1.36 1.38 1.35 1.33 1.33 1.30 1.31 1.37 1.44 1.50 1.50 1.52 1.53 1.55 1.50 1.45 1.43 1.46 1.51 1.54 1.53 1.56 1.55 1.55 1.54 1.63 1.67
1.12 1.24 1.33 1.41 1.59 1.71 1.81 1.81 1.85 1.82 1.99 2.01 1.97 1.95 1.94 1.94 1.91 1.91 1.83 1.73 1.75 1.70 1.71 1.68 1.60 1.54 1.38 1.37 1.35 1.34 1.35 1.36 1.35 1.31 1.26 1.29 1.34 1.33 1.35 1.35 1.31 1.31 1.30 1.33 1.33 1.40 1.44 1.43 1.45 1.46 1.48 1.49 1.42 1.42 1.47 1.48 1.50 1.53 1.56 1.50 1.49 1.54 1.61
1.07 1.18 1.30 1.36 1.44 1.57 1.71 1.86 1.91 1.89 2.06 1.98 1.93 2.02 2.04 2.07 1.96 1.89 1.78 1.79 1.84 1.90 1.92 1.73 1.56 1.52 1.47 1.42 1.39 1.34 1.36 1.38 1.39 1.36 1.31 1.21 1.27 1.27 1.31 1.32 1.29 1.29 1.27 1.26 1.29 1.31 1.36 1.42 1.41 1.38 1.41 1.40 1.43 1.38 1.43 1.49 1.47 1.50 1.54 1.54 1.48 1.46 1.51
1.06 1.14 1.25 1.34 1.42 1.50 1.57 1.66 1.76 1.90 1.92 1.88 1.90 1.99 2.04 2.00 1.94 1.88 1.88 1.97 2.08 1.98 1.89 1.87 1.85 1.72 1.65 1.53 1.49 1.43 1.40 1.42 1.43 1.40 1.32 1.23 1.19 1.20 1.23 1.28 1.31 1.29 1.23 1.20 1.23 1.27 1.29 1.33 1.38 1.37 1.38 1.34 1.34 1.37 1.37 1.41 1.42 1.43 1.45 1.50 1.51 1.47 1.52
1.06 1.10 1.23 1.34 1.44 1.51 1.58 1.64 1.71 1.74 1.77 1.81 1.85 1.87 1.92 1.97 1.95 1.86 1.91 2.03 1.93 1.87 1.89 1.90 1.89 1.79 1.72 1.63 1.57 1.54 1.49 1.43 1.43 1.44 1.39 1.28 1.23 1.18 1.17 1.23 1.27 1.31 1.23 1.18 1.16 1.21 1.24 1.28 1.30 1.33 1.34 1.31 1.28 1.30 1.30 1.33 1.36 1.38 1.37 1.37 1.40 1.39 1.39
1.06 1.10 1.16 1.26 1.36 1.45 1.52 1.57 1.61 1.62 1.65 1.68 1.71 1.79 1.87 1.94 1.92 1.89 1.94 1.95 1.99 1.96 1.88 1.90 1.81 1.76 1.75 1.69 1.62 1.57 1.52 1.48 1.43 1.40 1.40 1.36 1.31 1.24 1.21 1.18 1.21 1.27 1.25 1.20 1.13 1.12 1.20 1.21 1.23 1.26 1.28 1.27 1.26 1.24 1.25 1.25 1.28 1.31 1.34 1.34 1.33 1.31 1.26
1.02 1.08 1.10 1.19 1.29 1.37 1.44 1.51 1.56 1.61 1.63 1.65 1.66 1.70 1.76 1.83 1.89 1.95 1.99 1.94 1.91 1.96 1.91 1.87 1.86 1.80 1.75 1.72 1.65 1.61 1.56 1.53 1.50 1.43 1.40 1.40 1.37 1.34 1.29 1.25 1.20 1.23 1.25 1.21 1.16 1.10 1.10 1.19 1.16 1.13 1.18 1.24 1.28 1.28 1.26 1.25 1.23 1.23 1.25 1.27 1.27 1.24 1.22
0.97 1.04 1.08 1.13 1.21 1.29 1.39 1.46 1.51 1.56 1.60 1.63 1.67 1.67 1.67 1.74 1.80 1.89 1.98 1.98 1.98 2.00 1.96 2.02 2.00 1.94 1.81 1.76 1.68 1.70 1.65 1.56 1.53 1.54 1.48 1.45 1.44 1.41 1.37 1.33 1.27 1.21 1.22 1.23 1.19 1.14 1.07 1.09 1.16 1.13 1.09 1.14 1.19 1.23 1.25 1.25 1.22 1.20 1.18 1.16 1.18 1.20 1.18
0.95 0.99 1.06 1.11 1.14 1.20 1.25 1.33 1.43 1.50 1.56 1.58 1.58 1.59 1.60 1.67 1.72 1.80 1.88 1.93 2.00 1.99 1.99 2.04 2.00 1.90 1.82 1.78 1.75 1.71 1.66 1.60 1.61 1.58 1.55 1.54 1.53 1.49 1.46 1.41 1.38 1.30 1.27 1.27 1.23 1.16 1.11 1.08 1.11 1.16 1.11 1.10 1.11 1.14 1.18 1.21 1.22 1.21 1.19 1.15 1.10 1.11 1.15
0.87 0.92 0.97 1.05 1.09 1.15 1.17 1.22 1.31 1.40 1.46 1.50 1.53 1.54 1.54 1.60 1.67 1.73 1.80 1.91 1.95 2.03 2.09 2.10 2.05 1.99 1.93 1.84 1.78 1.77 1.75 1.75 1.73 1.69 1.64 1.59 1.57 1.57 1.53 1.50 1.45 1.41 1.37 1.33 1.33 1.28 1.17 1.12 1.10 1.14 1.16 1.12 1.10 1.09 1.09 1.11 1.15 1.17 1.18 1.15 1.12 1.06 1.06
0.81 0.84 0.90 0.94 1.03 1.06 1.14 1.18 1.23 1.29 1.35 1.40 1.45 1.49 1.52 1.58 1.65 1.67 1.69 1.79 1.91 1.95 1.98 2.07 2.06 2.06 2.07 2.03 1.94 1.90 1.87 1.81 1.80 1.77 1.77 1.71 1.62 1.60 1.60 1.56 1.52 1.50 1.46 1.38 1.40 1.41 1.35 1.27 1.20 1.14 1.16 1.14 1.11 1.08 1.05 1.02 1.06 1.14 1.14 1.16 1.13 1.08 1.02
0.82 0.81 0.85 0.90 0.95 1.01 1.02 1.10 1.19 1.27 1.30 1.33 1.36 1.42 1.46 1.54 1.60 1.66 1.71 1.75 1.82 1.88 1.96 1.96 1.96 2.01 2.07 2.07 2.13 2.12 2.08 2.07 1.97 1.91 1.83 1.81 1.81 1.73 1.67 1.65 1.61 1.57 1.54 1.51 1.49 1.46 1.45 1.42 1.35 1.27 1.22 1.20 1.18 1.13 1.04 0.99 0.98 1.02 1.09 1.09 1.09 1.09 1.07
0.79 0.81 0.82 0.86 0.91 0.95 0.97 0.97 1.02 1.08 1.19 1.27 1.31 1.34 1.38 1.44 1.53 1.60 1.65 1.74 1.79 1.86 1.93 1.94 1.92 1.91 2.00 2.09 2.12 2.15 2.14 2.10 2.05 2.04 1.96 1.91 1.83 1.81 1.76 1.72 1.67 1.62 1.58 1.56 1.54 1.52 1.51 1.49 1.43 1.40 1.34 1.28 1.25 1.21 1.17 1.09 1.01 0.99 1.02 1.04 1.03 1.00 1.00
0.74 0.76 0.77 0.80 0.83 0.87 0.93 0.95 0.96 1.00 1.05 1.13 1.20 1.28 1.32 1.34 1.38 1.47 1.60 1.67 1.76 1.84 1.86 1.89 1.92 1.94 1.94 2.01 2.13 2.16 2.12 2.08 2.04 2.02 1.99 1.95 1.92 1.84 1.81 1.79 1.72 1.66 1.60 1.58 1.59 1.58 1.55 1.50 1.49 1.46 1.44 1.35 1.28 1.25 1.25 1.23 1.19 1.11 1.04 1.01 1.00 0.98 0.94
0.76 0.76 0.78 0.79 0.79 0.81 0.86 0.90 0.92 0.95 0.99 1.01 1.07 1.15 1.21 1.27 1.30 1.35 1.44 1.59 1.71 1.78 1.81 1.88 1.86 1.91 1.98 2.01 2.03 2.08 2.08 2.03 2.04 2.06 2.07 2.10 2.07 1.98 1.88 1.83 1.80 1.79 1.83 1.74 1.70 1.66 1.60 1.57 1.53 1.49 1.47 1.45 1.37 1.29 1.26 1.27 1.28 1.27 1.21 1.13 1.06 1.01 0.97
0.73 0.74 0.75 0.77 0.78 0.79 0.80 0.82 0.84 0.87 0.89 0.92 0.96 1.01 1.09 1.15 1.17 1.23 1.25 1.31 1.44 1.61 1.72 1.81 1.81 1.82 1.88 1.92 2.01 2.07 2.04 2.01 2.05 2.06 2.07 2.11 2.12 2.10 2.11 2.05 1.92 1.86 1.85 1.88 1.88 1.76 1.67 1.62 1.58 1.58 1.55 1.50 1.47 1.40 1.32 1.28 1.27 1.27 1.26 1.22 1.15 1.09 1.06
0.74 0.74 0.73 0.74 0.75 0.79 0.79 0.80 0.81 0.81 0.84 0.89 0.89 0.91 0.95 1.03 1.08 1.12 1.18 1.19 1.18 1.29 1.42 1.56 1.66 1.74 1.82 1.80 1.88 1.93 2.00 2.02 2.06 2.09 2.11 2.11 2.14 2.08 2.03 2.05 2.04 1.94 2.04 2.04 1.98 1.97 1.90 1.87 1.77 1.64 1.58 1.56 1.53 1.47 1.42 1.37 1.34 1.31 1.28 1.26 1.21 1.19 1.18
0.75 0.75 0.75 0.76 0.76 0.77 0.81 0.84 0.83 0.84 0.86 0.86 0.87 0.87 0.87 0.97 1.01 1.03 1.11 1.14 1.16 1.17 1.20 1.27 1.36 1.50 1.71 1.80 1.78 1.80 1.90 1.94 1.96 2.03 2.09 2.16 2.13 2.04 2.02 2.06 2.01 1.96 1.98 1.91 1.86 1.79 1.75 1.79 1.81 1.73 1.63 1.57 1.56 1.50 1.45 1.43 1.43 1.39 1.34 1.30 1.30 1.28 1.26
0.75 0.76 0.75 0.75 0.76 0.78 0.80 0.80 0.81 0.84 0.86 0.84 0.85 0.86 0.85 0.88 0.92 0.99 1.03 1.05 1.10 1.16 1.18 1.14 1.13 1.21 1.34 1.53 1.72 1.85 1.89 1.91 1.93 1.93 1.98 2.06 2.09 2.15 2.15 2.17 2.13 2.09 2.08 1.95 1.89 1.88 1.88 1.86 1.84 1.87 1.82 1.72 1.61 1.55 1.49 1.47 1.49 1.46 1.41 1.38 1.36 1.34 1.32
0.73 0.74 0.74 0.74 0.73 0.76 0.77 0.76 0.77 0.79 0.81 0.82 0.83 0.84 0.84 0.86 0.86 0.88 0.95 1.00 1.00 1.08 1.14 1.16 1.13 1.15 1.17 1.24 1.39 1.58 1.79 1.90 1.91 1.94 1.96 1.99 2.05 2.18 2.18 2.17 2.14 2.16 2.17 2.09 2.04 1.97 1.94 1.86 1.77 1.78 1.82 1.78 1.70 1.67 1.62 1.56 1.54 1.54 1.49 1.45 1.41 1.39 1.40
0.71 0.71 0.72 0.73 0.74 0.77 0.75 0.76 0.76 0.74 0.73 0.73 0.78 0.79 0.81 0.82 0.81 0.82 0.86 0.89 0.96 0.98 1.00 1.08 1.13 1.16 1.17 1.21 1.28 1.35 1.49 1.55 1.69 1.77 1.82 1.91 2.00 2.08 2.15 2.19 2.13 2.13 2.15 2.16 2.14 2.07 2.00 1.95 1.87 1.79 1.76 1.76 1.75 1.76 1.77 1.69 1.60 1.59 1.54 1.49 1.45 1.42 1.44
0.72 0.69 0.67 0.68 0.72 0.74 0.71 0.72 0.72 0.72 0.71 0.75 0.77 0.77 0.77 0.78 0.77 0.78 0.80 0.81 0.84 0.91 0.96 1.00 1.03 1.07 1.12 1.15 1.17 1.26 1.35 1.40 1.42 1.49 1.67 1.74 1.78 1.93 2.03 2.12 2.12 2.08 2.09 2.11 2.13 2.13 2.07 1.97 1.91 1.87 1.84 1.87 1.84 1.75 1.74 1.75 1.72 1.72 1.69 1.64 1.55 1.50 1.48
0.71 0.66 0.64 0.65 0.65 0.65 0.66 0.67 0.69 0.70 0.71 0.73 0.73 0.75 0.77 0.75 0.73 0.75 0.77 0.77 0.78 0.82 0.88 0.94 0.95 0.97 1.03 1.07 1.08 1.13 1.23 1.32 1.39 1.38 1.46 1.62 1.73 1.85 1.90 1.96 2.04 2.07 2.11 2.16 2.14 2.08 2.09 2.12 2.07 2.02 1.99 2.02 1.99 1.89 1.81 1.78 1.73 1.72 1.76 1.75 1.70 1.63 1.59
0.60 0.58 0.57 0.56 0.56 0.59 0.60 0.59 0.60 0.62 0.65 0.67 0.69 0.71 0.72 0.72 0.71 0.72 0.73 0.72 0.76 0.83 0.85 0.86 0.85 0.89 0.93 0.97 1.02 1.06 1.13 1.19 1.28 1.37 1.43 1.49 1.49 1.51 1.58 1.73 1.82 1.89 1.98 2.06 2.10 2.10 2.06 2.06 2.03 2.02 2.01 2.04 2.07 2.06 1.98 1.90 1.88 1.85 1.79 1.78 1.80 1.77 1.71
0.55 0.55 0.55 0.56 0.57 0.57 0.58 0.55 0.56 0.57 0.58 0.59 0.63 0.65 0.67 0.68 0.67 0.68 0.69 0.70 0.78 0.81 0.82 0.81 0.80 0.81 0.82 0.85 0.89 0.96 1.01 1.07 1.15 1.22 1.28 1.30 1.38 1.48 1.46 1.46 1.60 1.71 1.80 1.89 1.95 1.97 1.97 1.97 2.01 2.00 1.92 1.93 1.95 2.06 2.08 2.05 1.98 1.95 1.97 1.92 1.88 1.86 1.82
0.47 0.49 0.51 0.53 0.52 0.56 0.55 0.54 0.52 0.52 0.53 0.56 0.58 0.60 0.61 0.62 0.61 0.63 0.64 0.71 0.76 0.77 0.76 0.75 0.76 0.77 0.77 0.79 0.81 0.83 0.87 0.92 1.00 1.07 1.15 1.22 1.24 1.26 1.36 1.46 1.58 1.58 1.67 1.79 1.85 1.88 1.89 1.93 1.99 1.97 1.93 1.95 1.92 1.97 2.03 2.11 2.12 2.10 2.13 2.14 2.03 1.95 1.88
0.44 0.47 0.49 0.50 0.52 0.52 0.49 0.48 0.50 0.49 0.49 0.52 0.55 0.56 0.59 0.60 0.59 0.56 0.59 0.64 0.68 0.71 0.72 0.74 0.74 0.74 0.75 0.74 0.75 0.78 0.80 0.81 0.85 0.89 0.95 1.04 1.15 1.22 1.22 1.20 1.31 1.47 1.56 1.60 1.62 1.66 1.75 1.81 1.87 1.90 1.93 1.91 1.93 1.98 2.01 2.01 2.04 2.09 2.11 2.09 2.06 1.98 1.91
0.40 0.42 0.43 0.44 0.48 0.48 0.46 0.45 0.42 0.44 0.45 0.46 0.50 0.52 0.53 0.55 0.57 0.58 0.60 0.61 0.62 0.62 0.64 0.65 0.65 0.66 0.70 0.75 0.77 0.78 0.80 0.78 0.74 0.76 0.81 0.85 0.90 1.01 1.10 1.25 1.40 1.49 1.57 1.60 1.62 1.61 1.63 1.70 1.73 1.73 1.77 1.82 1.88 1.93 1.93 1.87 1.82 1.88 2.09 2.22 2.29 2.14 2.10
0.41 0.41 0.43 0.45 0.45 0.47 0.46 0.45 0.42 0.40 0.40 0.40 0.44 0.48 0.50 0.51 0.54 0.56 0.59 0.61 0.62 0.63 0.64 0.62 0.62 0.60 0.64 0.68 0.72 0.74 0.73 0.72 0.75 0.73 0.71 0.75 0.81 0.89 1.04 1.14 1.24 1.35 1.40 1.44 1.52 1.58 1.65 1.71 1.73 1.75 1.78 1.81 1.84 1.81 1.76 1.79 1.84 1.93 2.04 2.08 2.21 2.23 2.28
0.40 0.39 0.39 0.39 0.42 0.43 0.43 0.44 0.43 0.43 0.41 0.40 0.42 0.44 0.45 0.47 0.50 0.53 0.56 0.58 0.61 0.62 0.61 0.61 0.62 0.63 0.61 0.63 0.65 0.69 0.75 0.75 0.75 0.79 0.79 0.76 0.79 0.90 0.98 0.98 0.99 1.03 1.10 1.31 1.43 1.44 1.47 1.52 1.62 1.71 1.82 1.85 1.83 1.75 1.67 1.68 1.70 1.86 2.10 2.17 2.22 2.20 2.16
0.38 0.38 0.38 0.39 0.40 0.40 0.40 0.41 0.43 0.43 0.43 0.43 0.44 0.43 0.43 0.43 0.45 0.49 0.53 0.56 0.58 0.59 0.56 0.57 0.57 0.58 0.58 0.60 0.61 0.62 0.64 0.67 0.70 0.73 0.78 0.82 0.81 0.82 0.85 0.93 0.99 1.04 1.03 1.04 1.15 1.18 1.25 1.32 1.31 1.38 1.50 1.49 1.51 1.57 1.57 1.63 1.80 1.98 2.02 2.08 2.17 2.21 2.24
0.39 0.39 0.39 0.39 0.38 0.38 0.38 0.39 0.40 0.42 0.43 0.45 0.47 0.46 0.45 0.45 0.45 0.46 0.48 0.50 0.52 0.53 0.53 0.55 0.55 0.54 0.54 0.55 0.55 0.58 0.61 0.64 0.65 0.70 0.75 0.76 0.75 0.73 0.72 0.78 0.85 0.91 0.97 1.00 1.04 1.11 1.16 1.20 1.25 1.33 1.38 1.40 1.39 1.44 1.46 1.48 1.55 1.61 1.68 1.76 1.86 2.00 2.15
0.42 0.41 0.40 0.41 0.40 0.39 0.38 0.38 0.38 0.39 0.41 0.44 0.47 0.47 0.48 0.47 0.48 0.47 0.47 0.48 0.50 0.51 0.50 0.49 0.50 0.50 0.51 0.53 0.53 0.55 0.57 0.60 0.63 0.67 0.70 0.71 0.74 0.76 0.75 0.73 0.73 0.77 0.87 0.96 1.02 1.09 1.16 1.23 1.25 1.27 1.32 1.38 1.43 1.46 1.47 1.49 1.51 1.53 1.55 1.57 1.64 1.80 1.92
Wind_Speed
18 20 20 21 20 21 23 23 23 23 23 23 22 22 22 21 21 21 20 21 22 21 20 20 20 20 19 19 19 19 19 18 17 17 17 16 15 15 14 14 13 13 12 11 10 10 9 9 9 8 8 8 8 7 7 7 7 6 6 6 5 5 5
16 19 20 20 21 21 22 23 23 23 22 22 22 22 22 22 21 21 21 21 22 22 21 20 20 20 20 19 19 19 19 19 18 18 17 17 16 16 15 14 14 13 13 12 11 10 10 10 9 9 8 8 8 8 8 7 7 7 6 6 6 5 5
12 16 18 18 19 20 21 21 21 21 21 21 22 22 23 22 21 21 21 22 22 22 22 21 21 20 20 19 19 19 19 19 19 19 18 18 17 17 16 15 14 14 14 13 11 11 11 10 10 9 9 8 8 8 8 8 8 7 7 6 6 5 5
11 12 15 16 18 19 20 20 20 20 22 22 23 23 23 22 22 22 21 22 22 22 23 22 21 21 20 20 19 19 19 20 20 20 19 19 18 18 17 16 15 15 14 14 13 12 11 11 11 10 9 9 9 8 8 8 8 8 7 7 6 6 5
10 11 12 14 18 20 19 20 20 21 23 24 23 23 22 22 22 22 21 22 22 22 23 23 22 21 21 20 20 19 19 20 20 20 20 19 19 18 18 17 17 16 15 14 14 13 12 12 11 11 10 10 9 9 9 8 8 8 7 7 6 6 6
11 11 11 11 15 18 18 19 20 21 23 23 22 22 23 23 23 23 22 22 23 23 23 23 23 22 21 21 20 20 20 20 20 20 20 20 20 19 19 18 18 17 16 15 14 14 14 13 12 12 11 11 10 10 9 9 9 8 8 8 7 7 6
12 13 13 11 12 14 16 18 19 20 21 20 20 21 22 23 23 22 22 22 23 23 24 24 23 22 22 21 21 20 20 20 20 20 21 21 21 20 20 19 19 18 17 17 16 15 15 14 14 13 13 12 11 11 10 10 10 9 8 8 8 7 7
11 12 13 12 12 12 12 14 16 19 19 17 17 18 19 20 21 21 21 22 23 24 23 23 23 22 22 21 21 21 21 21 21 21 21 21 22 21 21 20 20 19 18 18 17 16 16 15 15 15 14 13 13 12 12 11 11 10 9 9 9 8 8
10 11 12 12 12 12 11 10 11 13 15 15 15 16 16 18 20 20 20 22 23 22 22 22 22 22 22 21 21 22 21 21 21 21 21 22 22 22 22 21 21 20 20 19 18 18 17 17 16 16 16 15 14 14 13 12 12 11 10 10 9 9 9
10 11 11 11 11 11 11 10 10 10 10 11 13 14 15 16 18 19 19 20 21 20 19 20 21 21 22 22 22 22 22 22 22 22 22 22 22 22 23 22 22 21 21 20 20 19 19 18 18 17 17 16 16 15 15 14 13 12 12 11 11 10 10
11 10 11 11 11 11 11 11 11 10 10 10 11 12 13 14 16 18 19 20 20 18 18 18 19 20 22 22 22 22 22 23 23 23 23 23 23 23 23 23 23 22 22 22 21 21 20 19 19 19 18 18 18 17 17 16 15 14 13 13 12 11 11
11 11 11 11 11 11 11 11 11 11 11 11 11 11 12 13 13 15 17 19 20 19 19 19 19 19 21 22 23 23 23 23 23 24 24 24 23 23 23 23 23 23 23 23 22 22 21 21 20 20 20 20 19 19 18 18 17 16 16 15 14 13 12
12 11 11 11 11 11 11 11 11 11 11 12 12 12 13 13 12 13 15 17 18 19 19 19 19 19 20 21 23 24 24 24 24 24 24 24 24 24 23 23 24 24 24 23 23 23 23 22 22 21 21 21 21 20 20 19 19 18 18 17 16 15 14
13 12 11 10 10 10 11 11 11 11 12 12 13 13 13 13 13 14 14 15 16 17 18 19 19 19 21 22 23 23 24 25 25 25 25 25 25 25 24 24 24 24 24 24 24 24 24 23 23 22 22 22 22 22 21 21 20 20 19 19 18 17 16
14 13 12 11 10 10 10 11 11 11 12 12 13 13 14 14 14 15 16 16 16 17 18 19 19 20 21 23 24 24 24 25 25 25 25 25 25 25 25 25 24 24 24 24 24 24 24 24 24 23 23 23 23 23 22 22 22 21 21 21 20 19 18
15 14 13 12 12 11 11 11 11 11 12 12 13 13 14 15 15 16 16 18 18 18 18 18 20 21 21 22 23 24 25 25 26 26 25 26 26 26 26 26 26 25 25 25 25 24 24 24 24 24 24 24 24 24 23 23 23 23 23 22 22 21 20
16 15 14 14 13 12 12 11 11 11 12 12 13 13 14 15 15 16 17 18 19 20 19 19 19 21 22 23 23 24 25 25 25 25 25 25 26 26 27 27 27 27 26 26 26 26 25 25 25 25 25 24 24 24 24 24 24 24 25 24 24 23 22
16 16 15 15 14 14 13 13 12 12 12 13 13 13 13 15 15 16 16 17 18 19 20 20 20 21 22 23 24 24 25 25 25 24 24 25 25 26 27 27 27 28 28 28 28 27 27 27 26 26 26 25 25 25 25 25 25 25 26 26 26 25 24
17 17 16 15 15 15 14 14 14 13 13 14 14 14 13 14 15 16 16 17 18 19 19 20 20 21 21 22 23 25 25 26 25 25 24 25 26 26 27 27 28 28 29 29 29 29 28 28 28 28 27 27 27 26 26 25 25 26 26 27 27 27 27
17 17 17 16 16 16 15 15 15 15 14 15 15 15 15 14 15 15 16 17 18 18 19 19 20 22 22 22 23 24 25 26 26 26 26 26 27 28 28 28 28 28 29 29 30 29 29 29 29 29 29 29 28 28 27 27 26 26 26 27 27 28 28
18 18 17 17 17 17 16 16 16 16 16 16 16 16 16 16 15 16 16 17 17 18 18 19 20 21 23 24 23 22 23 24 26 27 28 28 28 28 28 28 28 28 29 29 30 29 29 30 29 29 29 29 29 29 29 29 28 28 27 28 28 28 28
19 19 18 18 18 18 18 17 17 17 17 17 17 16 16 16 16 16 17 17 18 18 19 19 19 20 21 23 23 22 22 22 24 26 27 28 29 29 29 28 28 28 28 28 28 28 28 29 29 29 29 30 30 30 30 30 30 30 29 29 29 29 29
20 20 19 19 19 19 19 19 18 18 19 19 18 18 17 17 17 17 17 17 18 18 19 19 20 20 21 21 22 22 22 22 23 25 26 27 28 29 30 29 29 28 28 28 28 27 28 28 28 28 29 30 30 30 30 30 30 31 31 31 31 30 30
22 21 21 21 20 20 20 20 20 20 20 20 20 19 19 19 19 18 18 18 18 19 19 19 19 20 21 21 21 22 23 23 24 24 26 27 27 27 29 29 28 28 28 28 28 28 29 29 29 29 29 29 30 30 30 30 31 31 31 32 32 32 31
23 23 23 23 22 22 22 22 22 22 22 22 21 21 21 21 21 20 20 20 20 20 20 20 20 20 20 21 22 23 23 24 24 25 25 26 26 26 26 27 27 28 28 28 29 29 29 30 30 30 30 30 30 30 30 30 30 31 31 32 32 32 32
24 24 24 24 24 24 24 24 24 24 24 23 23 23 23 23 23 22 22 22 22 21 21 21 21 21 21 21 22 23 24 24 25 25 25 26 27 26 26 25 26 27 28 29 29 30 30 30 30 30 30 30 30 31 31 30 30 30 31 32 32 33 33
25 25 26 26 26 26 26 26 26 26 26 25 25 25 25 25 25 25 25 24 24 23 23 23 23 23 23 23 23 23 24 24 25 25 26 26 27 27 26 25 25 26 27 28 29 30 31 30 30 30 30 30 30 31 31 31 31 31 31 32 32 33 33
26 26 27 27 27 27 28 28 28 28 28 27 27 27 27 27 27 27 27 27 26 26 25 25 25 25 24 24 24 24 24 24 24 25 25 26 26 26 26 26 26 27 27 28 28 29 30 30 30 30 30 30 30 31 31 31 32 32 32 32 32 33 33
27 27 28 28 28 28 28 29 29 29 30 30 30 29 29 29 29 29 30 30 29 29 28 28 27 27 27 26 26 25 25 25 25 25 26 26 26 27 27 27 27 27 28 28 28 28 29 30 30 31 31 30 30 31 31 32 32 33 33 33 34 34 34
28 29 29 29 29 29 29 30 30 30 31 31 31 31 31 31 31 31 32 32 31 31 31 31 31 30 30 29 28 28 27 27 27 27 27 27 27 27 27 28 28 28 28 28 29 29 29 30 30 31 31 30 30 31 31 32 32 33 33 34 35 35 35
29 29 30 30 30 30 31 31 31 32 32 32 33 33 33 33 33 34 34 33 34 34 34 34 33 33 32 32 31 31 30 29 29 29 29 29 28 28 27 27 28 28 28 28 29 29 29 30 30 31 30 31 31 31 30 30 31 33 33 33 33 34 35
29 29 30 30 31 31 32 32 33 33 33 33 34 34 34 34 35 35 35 35 36 36 36 36 35 35 35 35 34 34 33 33 32 31 30 30 29 29 29 27 27 27 28 29 29 29 29 30 30 31 31 31 31 31 30 30 30 31 32 32 32 32 33
28 28 29 30 30 31 32 32 33 33 34 35 35 35 36 36 36 36 37 37 37 37 37 38 38 38 38 37 36 36 36 36 35 35 34 33 32 31 30 29 28 27 27 28 29 29 29 29 30 30 31 31 31 31 30 30 29 29 30 31 32 32 31
28 28 29 29 30 31 31 32 33 33 34 35 35 36 36 37 37 38 38 38 38 38 39 39 40 40 40 40 39 39 38 38 38 37 37 36 35 33 32 31 31 30 29 29 28 29 29 29 29 30 30 31 31 31 30 30 30 30 30 30 31 30 30
28 28 29 29 30 30 31 32 32 33 34 34 35 35 36 37 37 38 38 39 39 39 40 40 41 41 41 41 41 41 40 40 40 39 39 38 37 36 35 35 35 34 33 32 31 31 30 30 30 30 31 31 31 31 30 31 31 31 30 30 30 29 29
28 29 29 29 30 31 31 32 32 33 34 34 35 35 36 36 37 37 38 38 39 40 40 41 41 42 42 42 42 42 42 42 41 41 41 40 39 38 38 38 37 37 36 36 35 35 35 34 34 33 33 33 33 33 32 32 32 32 32 31 31 31 31
28 29 29 30 30 31 32 32 33 34 34 35 35 35 36 36 37 37 38 38 39 39 40 41 42 42 43 43 43 43 44 44 44 44 43 43 42 42 41 41 41 40 39 39 38 37 37 37 36 35 35 35 35 35 35 35 34 34 34 34 34 33 33
27 28 29 30 31 31 32 33 33 34 34 35 35 36 36 37 37 37 38 39 39 40 41 41 42 43 43 44 44 45 45 45 46 46 46 45 45 44 44 44 43 42 42 41 40 39 38 37 37 36 36 35 35 35 36 36 35 35 35 35 34 34 33
Wind_Direction
208 205 207 208 209 210 210 211 212 209 205 204 204 205 206 206 205 204 202 203 204 203 202 201 201 202 203 204 204 203 202 203 202 201 201 200 199 198 197 196 195 194 193 192 191 189 188 187 187 188 187 186 185 183 182 181 180 181 180 179 179 179 178
207 206 206 207 209 211 211 210 210 209 208 206 206 207 206 206 207 205 203 204 205 204 204 203 202 203 204 205 205 204 204 205 204 203 202 201 201 200 199 199 198 197 197 195 193 193 193 192 190 191 191 189 188 188 186 185 185 184 182 182 182 181 180
203 204 205 208 210 211 213 212 210 210 211 210 208 208 208 207 207 206 204 204 205 205 205 205 204 204 205 205 205 206 206 206 206 205 204 203 202 202 201 201 200 200 200 199 197 196 196 195 194 194 194 193 191 191 191 190 189 189 186 183 184 184 182
196 198 203 211 212 211 213 213 213 214 215 215 210 209 209 209 208 208 206 205 206 206 206 206 206 206 206 206 206 207 207 208 209 208 206 204 204 204 203 203 203 203 203 203 202 201 199 199 198 198 198 198 196 194 194 194 193 193 191 188 189 188 186
198 201 207 214 214 212 212 212 213 213 214 214 211 208 209 210 210 209 208 208 208 208 207 207 207 208 208 208 208 208 208 209 210 209 208 206 205 205 205 205 205 205 206 206 206 206 204 203 202 202 202 202 201 199 198 198 197 196 195 195 194 193 192
207 207 209 213 212 212 214 215 212 210 211 212 211 210 211 210 210 210 209 210 211 210 208 207 207 208 209 210 210 209 210 210 211 211 210 209 208 208 208 208 207 207 208 208 208 209 209 208 207 206 206 205 205 204 202 202 202 201 201 200 201 201 200
215 210 208 208 206 206 211 213 210 209 211 211 210 212 210 208 211 212 211 212 212 210 208 207 207 208 209 211 210 210 211 212 213 213 212 211 211 211 210 210 210 210 210 210 210 211 211 212 212 210 209 208 208 208 207 207 207 207 207 206 206 208 209
219 214 211 210 208 205 205 207 206 210 213 210 208 210 209 209 212 214 215 215 214 210 207 206 207 208 209 211 211 211 212 213 214 215 215 214 214 214 214 213 213 212 212 212 213 214 214 215 215 214 213 213 212 211 211 212 212 211 212 213 213 213 214
218 215 213 212 213 214 214 211 206 208 211 210 209 212 213 214 214 216 219 219 216 212 208 207 208 208 209 211 213 213 213 214 215 216 217 216 216 216 216 216 216 216 215 216 216 217 217 217 217 217 217 217 216 215 215 215 215 215 216 216 217 217 219
216 214 212 211 214 216 218 218 212 208 209 208 209 213 216 217 217 218 220 219 219 217 213 211 210 210 210 213 214 215 215 215 216 217 218 218 218 218 219 219 219 219 219 219 219 219 220 220 220 219 220 220 220 219 219 219 219 218 219 220 220 221 223
215 214 211 211 213 215 217 217 215 214 214 212 211 212 214 218 220 220 220 221 223 223 219 216 214 213 213 214 216 217 217 217 218 218 219 220 220 220 220 221 222 222 222 222 222 222 222 222 222 222 222 223 223 223 223 223 223 222 222 223 223 224 225
214 215 214 212 212 213 215 217 217 217 216 217 217 215 215 217 221 223 223 223 222 222 221 220 219 217 216 216 218 219 219 219 220 220 220 221 222 222 222 223 224 224 224 224 225 225 224 224 225 225 225 226 226 226 226 226 227 226 226 226 227 228 228
213 213 214 213 213 213 213 215 216 217 218 219 219 218 218 219 222 223 223 222 223 223 222 223 224 224 221 219 219 220 221 221 222 222 222 222 224 224 224 224 225 225 226 226 227 227 227 226 226 227 228 228 229 228 229 229 230 230 229 229 230 231 232
211 212 212 213 215 216 216 216 216 218 220 222 222 220 220 222 225 224 222 222 225 227 227 229 231 230 227 225 224 223 222 223 223 223 223 223 224 225 226 226 226 227 227 227 228 228 229 229 228 228 229 230 231 231 231 231 232 233 232 232 233 233 234
211 212 214 217 219 219 220 221 219 220 221 222 223 223 222 225 229 229 225 223 224 227 230 232 233 232 230 229 229 227 226 224 225 224 224 224 225 226 227 228 228 229 229 229 230 230 230 231 231 230 231 231 232 233 233 233 234 235 235 235 235 236 237
212 214 215 217 220 223 224 225 224 223 224 223 222 224 225 226 230 232 230 228 227 228 229 232 233 233 233 231 230 230 228 226 226 226 224 225 226 226 227 228 229 230 231 231 231 231 232 232 233 233 233 233 233 234 234 235 236 236 236 237 238 239 240
214 216 217 217 220 223 225 227 228 229 230 229 226 226 227 227 229 231 231 230 230 230 231 233 235 235 236 235 233 232 231 229 228 227 227 227 227 227 228 229 230 231 232 232 233 233 233 234 235 235 235 235 235 235 236 237 237 236 236 238 239 241 242
214 217 219 219 221 224 226 228 231 233 235 235 233 231 230 230 231 232 232 232 232 232 233 235 237 238 238 238 236 234 233 233 234 233 232 231 231 230 230 231 232 232 233 233 234 234 234 235 236 237 238 238 238 238 239 239 239 238 237 238 240 241 243
216 218 220 223 224 226 229 231 233 235 237 239 239 236 233 234 235 236 236 235 235 234 234 235 238 239 238 239 239 237 234 235 238 239 237 236 236 235 234 234 234 235 234 234 234 234 235 235 237 238 239 240 240 241 241 242 241 240 239 240 241 242 244
221 222 223 226 228 229 231 234 236 238 239 241 242 240 238 238 238 238 239 238 237 238 238 239 239 239 239 239 241 240 239 240 240 240 240 240 239 237 236 236 237 237 236 235 235 235 235 236 237 238 240 241 242 242 243 244 243 242 241 242 243 244 245
225 226 227 228 230 232 234 237 239 241 241 243 244 244 243 242 241 241 242 241 240 240 242 243 243 243 241 240 241 242 244 244 242 240 241 241 241 240 240 240 240 239 239 238 237 236 236 237 238 239 241 242 243 243 244 244 244 243 243 244 244 245 246
226 228 230 231 232 234 235 238 240 241 242 243 244 245 246 246 244 244 244 245 243 242 243 246 247 247 246 245 244 244 245 246 245 243 243 242 243 244 244 244 242 241 243 244 243 240 240 240 240 241 242 243 243 244 245 245 244 244 244 244 245 246 248
227 229 231 233 235 235 235 238 241 242 242 242 243 244 246 247 247 246 246 247 247 246 246 247 247 249 250 251 250 247 246 247 247 246 245 244 244 245 245 244 243 242 244 247 246 244 243 242 242 243 243 243 243 244 245 246 245 244 244 245 245 247 249
228 231 233 235 237 237 238 241 244 243 243 243 243 244 246 247 248 247 247 248 248 249 249 249 250 250 251 252 252 250 248 247 247 246 247 247 247 246 245 244 242 242 243 245 245 244 243 242 242 243 244 244 244 245 245 246 246 245 245 245 245 247 248
232 234 235 237 238 239 241 245 246 245 245 245 245 246 247 247 248 248 249 250 249 249 249 250 251 252 253 253 253 251 250 249 248 247 247 248 248 249 248 246 244 243 243 243 243 244 244 244 244 244 245 245 246 246 246 246 247 246 245 245 245 246 248
236 237 239 239 240 241 244 245 245 245 246 247 248 249 248 248 248 249 251 252 251 250 250 251 252 253 253 254 253 252 252 251 250 250 249 250 250 250 250 250 247 246 246 245 244 244 245 245 245 246 246 246 246 246 246 247 248 247 245 245 245 246 247
238 239 241 242 243 244 245 244 244 246 247 247 248 249 249 249 250 251 252 253 252 252 252 253 254 255 255 254 254 253 252 252 252 253 252 251 250 250 251 251 250 248 248 248 247 245 245 245 246 247 248 247 247 247 247 248 248 247 246 246 246 246 247
241 242 243 244 245 245 245 245 246 247 247 248 248 249 249 249 251 252 253 253 253 253 253 254 255 256 256 256 255 254 253 252 253 254 253 253 252 252 252 251 251 250 250 250 250 247 246 246 247 248 249 249 249 250 249 249 249 249 248 247 247 246 247
244 245 245 246 246 247 247 248 248 249 249 249 249 249 249 249 250 251 253 253 254 254 254 254 255 256 256 256 256 255 254 254 254 253 253 254 255 256 255 253 252 252 251 252 252 250 248 247 247 249 250 251 252 252 251 251 251 251 250 248 247 246 246
246 247 247 247 248 248 249 250 250 251 251 251 251 250 250 250 250 250 251 252 253 254 254 255 255 255 255 255 256 256 255 255 255 254 254 254 255 256 256 256 255 254 253 252 252 252 251 249 248 249 250 251 253 253 253 253 253 253 252 250 248 246 246
249 249 249 249 250 251 251 251 251 252 252 252 253 253 252 252 251 251 251 251 252 253 254 255 255 255 254 254 255 255 256 256 255 255 256 255 255 255 256 256 256 255 254 253 253 252 252 251 251 251 251 252 253 254 255 255 255 256 256 254 250 248 247
249 250 251 251 252 252 253 254 253 253 253 253 254 254 254 254 254 253 253 253 253 253 253 253 253 254 255 255 254 254 255 255 255 255 255 255 255 256 256 256 256 255 255 255 254 254 253 252 252 252 253 253 254 255 256 257 259 262 260 255 251 249 248
250 251 252 252 253 253 254 255 255 255 255 255 255 255 255 255 255 255 255 254 254 253 253 253 253 254 254 254 253 253 254 255 255 255 255 254 254 254 254 254 254 255 255 255 255 255 254 253 253 253 254 254 254 255 257 258 261 263 261 256 253 252 250
252 253 253 254 254 254 254 255 256 257 257 257 256 256 256 256 256 256 256 256 255 255 254 253 254 254 254 254 253 253 253 254 254 254 254 253 252 252 252 253 253 254 254 254 255 255 254 254 254 254 254 255 254 255 257 258 258 261 263 262 259 256 253
253 254 255 256 256 256 256 256 257 257 258 258 258 258 258 257 257 257 257 257 256 256 255 255 254 254 254 254 253 253 252 252 252 251 251 251 251 251 252 253 253 254 254 254 254 254 254 254 255 255 255 255 255 256 258 258 258 260 264 264 262 260 258
253 255 256 257 257 258 258 258 258 258 258 258 259 259 259 259 259 258 258 257 257 257 257 256 256 255 254 253 252 252 252 252 251 251 250 250 251 252 252 252 253 253 254 255 255 255 254 255 256 256 257 257 257 257 257 257 258 261 263 263 263 263 261
254 255 257 258 259 259 260 260 259 259 259 259 259 259 259 259 259 260 259 259 259 258 258 257 257 256 255 254 253 252 252 252 251 251 251 251 251 252 252 253 253 253 254 255 256 256 255 255 256 257 258 258 259 259 258 258 259 260 261 261 262 263 262
256 257 258 259 259 260 260 261 261 261 260 260 260 259 259 259 260 260 260 260 260 259 259 258 257 257 256 255 254 254 253 252 251 251 251 251 251 251 251 253 254 254 253 253 254 255 256 256 256 256 257 258 258 258 259 258 258 259 259 259 260 261 260